Reno, NV

7:02 AM PST on November 17, 2019 (GMT -0800)
Reno-Tahoe International

Weather History for KRNO - September, 2019

Change the Weather History Date:

Sunday, September 1, 2019

  Actual Average Record
Temperature  
Mean Temperature 76 °F 70 °F  
Max Temperature 97 °F 87 °F 99 °F (1950)
Min Temperature 55 °F 53 °F 32 °F (1960)
Degree Days  
Heating Degree Days 0 1  
Month to date heating degree days 0 1  
Since 1 July heating degree days 0 11  
Cooling Degree Days 11 5  
Month to date cooling degree days 12 5  
Year to date cooling degree days 1003 751  
Growing Degree Days 26 (Base 50)    
Moisture  
Dew Point 34 °F    
Average Humidity 26    
Maximum Humidity 51    
Minimum Humidity 8    
Precipitation  
Precipitation 0.00 in 0.01 in 0.15 in (1983)
Month to date precipitation 0.00 0.01  
Year to date precipitation 8.76 4.70  
Snow  
Snow 0.00 in 0.00 in 0.00 in ()
Month to date snowfall 0.0 0.0  
Since 1 July snowfall 0.0 0.0  
Since 1 September snowfall 0.0 0.0  
Snow Depth 0.00 in    
Sea Level Pressure  
Sea Level Pressure 29.94 in    
Wind  
Wind Speed 4 mph ()    
Max Wind Speed 22 mph    
Max Gust Speed 26 mph    
Visibility 10.0 miles    
Events      
T = Trace of Precipitation, MM = Missing Value Source: Averaged Metar Reports

Daily Weather History Graph

Daily Weather History Graph

Search for Another Location

Airport or City:

Astronomy

Sep. 01, 2019 Rise Set
Actual Time 6:27 AM PDT 7:30 PM PDT
Civil Twilight 5:59 AM PDT 7:57 PM PDT
Nautical Twilight 5:26 AM PDT 8:30 PM PDT
Astronomical Twilight 4:52 AM PDT 9:04 PM PDT
Moon 9:02 AM PDT (9/1) 9:21 PM PDT (9/1)
Length of Visible Light 13h 58m
Length of Day
13h 02m
Waxing Crescent, 8% of the Moon is Illuminated
Sep 1
Waxing Crescent
Sep 5
First Quarter
Sep 13
Full
Sep 21
Last Quarter
Sep 28
New

Hourly Weather History & Observations

Time (PDT) Temp. Dew Point Humidity Pressure Visibility Wind Dir Wind Speed Gust Speed Precip Events Conditions
12:55 AM 70.0 °F 37.9 °F 31% 29.93 in 10.0 mi West 4.6 mph - N/A   Clear
1:55 AM 64.9 °F 37.0 °F 36% 29.95 in 10.0 mi Calm Calm - N/A   Clear
2:55 AM 64.0 °F 36.0 °F 35% 29.94 in 10.0 mi Calm Calm - N/A   Clear
3:55 AM 63.0 °F 36.0 °F 37% 29.94 in 10.0 mi WSW 5.8 mph - N/A   Clear
4:55 AM 57.0 °F 37.9 °F 49% 29.96 in 10.0 mi South 4.6 mph - N/A   Clear
5:55 AM 57.0 °F 37.9 °F 49% 29.98 in 10.0 mi Calm Calm - N/A   Clear
6:55 AM 55.9 °F 37.0 °F 49% 30.00 in 10.0 mi South 3.5 mph - N/A   Clear
7:55 AM 60.1 °F 37.9 °F 44% 30.01 in 10.0 mi Calm Calm - N/A   Clear
8:55 AM 66.9 °F 37.0 °F 33% 30.01 in 10.0 mi Calm Calm - N/A   Clear
9:55 AM 71.1 °F 37.9 °F 30% 30.00 in 10.0 mi Calm Calm - N/A   Clear
10:55 AM 77.0 °F 37.0 °F 24% 29.97 in 10.0 mi Calm Calm - N/A   Clear
11:55 AM 82.0 °F 33.1 °F 17% 29.95 in 10.0 mi Calm Calm - N/A   Clear
12:55 PM 87.1 °F 28.9 °F 12% 29.93 in 10.0 mi SE 4.6 mph - N/A   Partly Cloudy
1:55 PM 90.0 °F 26.1 °F 10% 29.90 in 10.0 mi SE 5.8 mph - N/A   Partly Cloudy
2:55 PM 93.9 °F 26.1 °F 9% 29.88 in 10.0 mi Variable 4.6 mph - N/A   Scattered Clouds
3:55 PM 95.0 °F 25.0 °F 8% 29.86 in 10.0 mi SW 13.8 mph - N/A   Scattered Clouds
4:55 PM 95.0 °F 28.0 °F 9% 29.88 in 10.0 mi SSW 21.9 mph - N/A   Scattered Clouds
5:55 PM 91.0 °F 32.0 °F 12% 29.89 in 10.0 mi WSW 17.3 mph - N/A   Mostly Cloudy
6:55 PM 88.0 °F 34.0 °F 15% 29.90 in 10.0 mi West 12.7 mph - N/A   Mostly Cloudy
7:55 PM 84.9 °F 35.1 °F 17% 29.91 in 10.0 mi Variable 5.8 mph - N/A   Partly Cloudy
8:55 PM 82.9 °F 36.0 °F 19% 29.92 in 10.0 mi West 6.9 mph - N/A   Clear
9:55 PM 79.0 °F 37.0 °F 22% 29.93 in 10.0 mi West 4.6 mph - N/A   Clear
10:55 PM 77.0 °F 37.9 °F 24% 29.93 in 10.0 mi Variable 3.5 mph - N/A   Partly Cloudy
11:55 PM 72.0 °F 37.9 °F 29% 29.93 in 10.0 mi Calm Calm - N/A   Partly Cloudy